Theta_e
345 343 346 348 348 348 348 349 350 350 350 349 347 343 342 344 345 346 347 346 347 344 340 340 341 344 348 350 352 352 351 350 350 348 347 345 345 344 344 345 345 345 344 342 342 342 342 342 342 340 340 342 343 344 345 346 346 347 348 347 347 348 347
346 345 346 347 348 349 349 350 350 349 348 346 344 342 341 343 345 346 347 346 346 345 343 344 344 346 349 350 351 351 350 350 349 346 344 343 343 342 342 343 344 344 345 344 344 344 344 343 343 341 341 341 342 345 346 346 345 346 347 347 347 347 347
348 348 348 349 349 350 350 349 347 346 343 342 340 339 341 344 346 346 346 345 344 344 343 344 346 348 350 350 351 350 350 349 348 346 345 344 344 342 340 341 342 344 344 344 344 344 344 344 344 343 342 342 342 344 345 345 345 345 346 347 348 347 347
350 350 350 350 350 349 347 346 344 342 340 340 340 340 343 345 344 343 343 343 342 341 342 345 346 347 348 349 349 349 349 349 349 348 346 345 346 345 343 343 343 344 345 345 345 344 345 345 345 344 344 343 342 343 343 344 345 344 344 346 346 346 346
350 351 350 350 349 346 344 343 341 340 340 340 339 338 339 339 338 336 336 337 336 335 337 341 345 346 345 346 346 345 346 347 347 347 346 346 346 346 346 345 345 346 346 346 345 345 344 344 344 344 344 344 343 343 343 343 344 343 343 343 345 346 346
350 350 350 348 346 344 342 340 339 337 334 332 330 328 328 329 328 329 329 329 328 327 328 330 334 338 340 341 342 343 344 344 344 344 344 345 346 346 346 346 346 347 346 346 345 344 343 343 343 344 344 344 344 344 344 343 343 343 343 344 344 345 347
349 349 348 346 344 341 339 335 332 328 325 324 325 324 324 323 324 325 325 324 323 322 321 321 323 325 328 330 333 334 337 339 341 343 343 343 343 344 345 345 346 346 346 345 345 343 342 342 344 344 345 345 344 344 344 344 344 343 343 344 344 345 346
348 347 346 344 342 339 335 329 324 322 323 325 327 327 326 324 324 324 324 324 324 322 321 321 320 319 319 321 323 324 327 330 333 336 339 341 341 340 341 342 344 344 344 344 344 343 343 343 345 345 345 345 345 345 345 345 345 344 343 343 344 344 346
345 345 344 342 341 338 331 324 321 322 324 325 327 329 329 327 326 325 325 326 325 324 323 322 321 320 319 318 318 319 320 322 324 327 329 332 335 336 336 336 337 340 342 343 343 343 343 344 346 346 345 346 346 345 344 344 344 344 343 343 343 344 345
344 343 342 340 339 334 327 325 325 326 326 326 328 330 330 329 327 327 328 328 328 327 326 324 323 322 321 320 319 318 318 318 319 320 321 323 326 329 332 331 331 333 335 338 340 341 342 344 345 345 345 345 346 345 344 344 343 343 343 343 344 344 345
343 341 341 341 336 329 327 330 330 330 330 330 331 331 331 330 328 328 329 330 331 330 328 327 325 325 324 324 322 320 318 318 317 317 318 319 321 324 327 329 329 328 328 331 334 337 340 342 343 344 344 345 345 345 344 344 343 342 343 343 344 344 344
342 342 342 339 332 326 329 333 332 332 333 333 333 332 331 330 329 329 329 330 331 330 329 328 327 326 326 326 325 323 321 319 318 318 317 318 321 324 325 326 326 326 325 326 327 330 334 339 341 342 343 344 345 345 344 344 344 343 343 343 343 344 345
342 342 340 337 330 326 329 332 332 333 334 334 334 332 330 331 331 330 330 330 330 329 329 327 327 327 327 326 326 325 323 321 319 319 319 319 321 323 324 324 323 323 323 323 324 324 326 332 338 340 341 342 344 344 345 345 345 344 344 343 343 344 345
341 339 336 334 332 329 330 332 333 334 334 335 333 330 329 331 332 332 333 332 332 331 329 328 327 327 327 327 327 325 324 322 321 320 320 321 321 322 323 323 323 322 322 322 323 323 323 327 332 337 339 340 341 342 343 344 345 345 344 344 344 343 344
338 336 334 333 333 333 332 333 334 334 335 335 333 330 330 331 331 332 333 334 333 331 329 328 327 327 327 326 326 325 323 322 322 322 321 321 322 322 322 322 322 323 323 323 323 323 323 324 328 334 337 339 339 340 341 342 342 343 344 345 345 344 344
337 335 334 333 333 334 333 333 335 335 336 335 332 329 329 329 330 331 333 333 332 329 328 328 327 326 326 325 324 324 323 320 321 323 323 323 323 323 323 322 323 323 323 323 324 324 324 324 324 329 334 337 338 339 339 341 341 341 342 343 345 345 345
337 335 334 334 333 334 334 334 335 335 335 332 329 328 328 330 332 332 332 331 329 328 327 327 327 326 325 324 324 323 323 321 321 323 324 325 325 324 324 323 324 325 324 324 324 324 325 324 324 325 329 334 336 336 337 339 341 342 342 342 344 345 346
336 335 334 334 334 334 333 332 332 331 330 328 327 329 330 331 332 330 330 328 327 327 327 326 326 325 324 324 325 326 326 326 326 326 326 327 326 326 326 326 326 327 327 326 325 325 325 325 325 324 325 329 332 334 335 337 339 342 343 343 344 345 345
333 333 333 333 333 332 330 329 328 327 327 328 329 330 330 330 329 328 327 327 326 326 325 325 325 324 324 325 327 328 329 329 329 329 329 328 328 328 328 328 328 328 328 327 327 326 325 326 326 325 325 326 328 330 333 335 337 338 340 342 343 344 345
329 329 329 329 329 328 328 327 327 328 329 329 330 329 328 327 327 326 326 325 325 324 324 324 324 324 324 326 328 329 330 330 330 330 330 329 328 327 326 326 326 326 327 327 327 327 327 326 326 326 326 325 325 326 329 332 335 336 337 339 341 342 343
328 328 327 328 328 328 328 327 328 329 328 328 328 327 327 326 325 325 324 324 324 324 323 324 324 324 325 326 328 329 329 330 330 330 330 329 328 326 325 324 324 324 325 326 326 327 327 327 326 326 326 327 326 326 326 328 331 333 334 336 338 339 340
328 328 328 328 328 328 328 327 327 327 327 327 327 325 324 324 322 322 323 323 324 325 325 325 324 324 326 327 328 329 329 330 330 329 328 328 327 326 325 325 325 325 325 325 325 325 326 326 326 326 327 327 327 327 327 326 327 329 331 333 335 336 337
328 328 328 328 328 327 327 327 327 326 326 325 324 323 322 322 322 322 324 325 326 326 326 325 326 327 327 328 328 329 329 329 329 328 327 326 326 326 326 326 326 326 326 326 326 325 325 325 326 326 326 327 327 328 328 327 327 327 328 330 333 334 335
326 327 328 327 327 327 326 326 326 325 325 324 324 324 324 323 323 324 325 326 327 327 327 327 328 328 328 328 328 328 329 328 327 326 325 325 326 326 326 326 326 326 326 326 326 326 326 325 325 325 326 327 327 328 328 328 328 329 329 329 331 333 333
326 327 327 326 326 326 325 325 325 324 325 325 325 325 325 324 325 325 326 327 327 328 328 328 328 328 328 328 328 328 328 327 325 325 325 326 327 327 326 326 325 325 325 326 326 326 326 326 326 325 325 326 327 329 329 328 329 330 331 331 331 332 333
325 326 326 325 326 325 325 325 325 324 325 325 324 324 324 325 325 326 327 327 328 328 328 328 328 328 328 328 327 327 326 325 325 325 326 326 326 326 326 325 325 325 325 325 326 326 326 326 325 325 325 325 326 328 329 329 329 330 331 332 332 333 333
325 325 326 325 325 325 325 325 324 324 324 324 324 325 325 326 326 327 327 327 328 328 328 328 328 327 327 326 326 325 324 324 324 325 325 325 325 325 325 325 324 324 324 325 325 326 326 326 325 325 325 324 325 326 328 329 330 330 331 331 332 332 333
326 326 325 325 324 323 323 323 323 324 324 325 325 326 326 326 326 327 327 327 327 327 327 327 327 326 326 325 324 324 324 323 324 324 324 324 324 323 324 324 324 324 324 325 325 325 326 325 325 325 324 324 324 325 326 327 328 330 331 331 331 332 332
325 324 324 323 322 322 322 323 324 325 325 326 327 326 326 327 326 326 326 326 326 326 325 326 325 325 324 324 324 324 323 323 324 323 323 323 322 322 323 323 324 325 325 325 326 325 325 325 325 326 325 324 324 324 325 326 326 328 329 330 330 330 331
323 322 321 321 321 321 322 323 324 325 326 326 326 326 326 326 326 325 325 324 324 323 323 323 323 323 323 323 323 323 323 323 323 322 322 322 321 322 323 324 324 325 325 325 326 325 326 326 326 326 326 326 326 325 325 325 326 326 327 328 328 328 329
321 321 321 321 321 322 322 323 325 325 326 325 325 325 324 324 323 323 322 321 321 321 320 320 320 320 320 321 321 322 322 322 321 321 321 321 321 322 323 324 324 324 325 325 325 325 325 325 326 326 327 327 327 326 326 326 326 326 326 326 327 327 328
321 322 321 321 322 323 323 325 325 324 324 323 322 322 321 320 320 320 319 319 319 318 318 318 318 318 318 319 319 320 320 320 320 320 320 321 321 322 322 323 323 324 324 324 324 324 324 325 325 325 326 327 327 327 327 327 327 327 327 327 327 327 328
321 321 322 322 323 324 324 324 323 322 321 320 319 319 318 318 318 318 318 317 317 317 317 317 317 317 317 317 318 318 319 319 320 320 320 320 321 321 321 321 322 322 323 323 323 324 324 324 324 325 326 327 327 327 327 328 327 327 328 328 327 327 328
322 322 323 324 323 323 323 321 321 320 319 317 316 316 316 315 315 316 316 316 316 316 316 316 316 316 316 317 317 318 319 319 320 320 320 319 320 320 320 321 321 322 322 322 322 322 323 323 323 325 326 327 328 328 328 328 327 327 328 328 328 327 327
323 323 324 322 321 321 320 320 320 318 315 313 313 313 312 311 313 315 315 314 315 316 316 315 316 316 316 317 318 318 319 319 318 318 318 318 318 319 320 320 320 320 320 320 320 321 322 323 323 323 324 326 327 328 328 328 328 328 328 328 328 328 327
323 323 322 320 319 320 320 320 318 313 309 310 310 310 309 308 310 313 314 314 314 315 315 315 315 315 316 316 317 318 318 317 317 317 317 318 318 319 319 318 318 318 318 319 319 320 321 322 322 322 322 324 326 326 326 326 328 328 328 328 328 328 328
322 320 319 319 319 319 317 315 311 307 307 309 308 307 307 306 306 308 311 314 315 315 314 313 314 315 316 315 316 317 316 316 316 316 316 317 318 318 318 317 317 317 318 318 319 320 320 321 322 322 322 323 324 324 324 325 327 327 328 328 328 328 328
318 316 318 318 317 314 311 309 307 306 306 307 307 307 307 307 305 305 307 311 314 316 315 312 311 314 315 315 315 316 316 316 316 316 316 316 317 317 317 317 317 317 317 317 317 317 318 318 319 321 321 322 322 323 323 324 325 326 326 327 327 327 328
Wind_Speed
7 7 7 7 6 6 7 9 10 10 10 10 9 10 10 9 8 9 11 12 12 11 9 9 11 13 13 11 9 8 7 7 7 7 8 9 10 11 11 11 10 10 10 9 9 10 11 13 14 13 13 13 13 14 14 16 16 18 20 18 16 16 17
7 6 6 6 5 5 6 7 8 9 10 10 10 10 10 8 8 10 12 13 14 12 11 10 11 11 11 10 8 7 7 7 7 7 8 9 10 11 12 12 11 11 10 10 10 10 11 12 13 13 14 13 13 13 14 15 16 17 19 18 16 16 16
8 7 6 5 5 5 5 5 6 7 9 10 11 11 10 10 11 12 13 13 14 14 14 13 11 9 8 9 9 8 8 8 8 9 9 10 10 10 11 12 12 12 11 11 11 11 11 11 11 11 12 13 13 13 13 14 15 15 16 16 16 15 12
7 6 5 5 6 6 5 5 6 7 8 9 10 11 10 11 13 14 14 14 14 15 16 15 13 12 11 11 11 10 9 9 10 10 10 10 10 10 10 11 12 12 12 12 12 12 11 10 9 9 10 11 12 12 12 13 14 14 14 14 15 14 11
7 6 5 5 6 7 6 6 7 7 8 8 10 11 10 11 12 14 15 15 15 16 16 16 14 14 14 14 13 12 11 11 11 11 11 11 11 11 11 11 12 11 11 12 12 12 11 10 9 9 8 9 11 11 11 12 12 13 12 12 13 14 13
6 5 6 6 7 7 6 6 6 7 8 9 11 12 12 12 12 14 15 15 15 15 15 16 15 15 15 16 15 15 13 13 12 11 12 12 13 13 13 13 13 13 13 13 13 12 11 10 9 8 8 9 10 11 11 12 12 12 11 10 10 13 14
6 5 7 7 7 7 6 6 6 7 10 12 14 15 15 15 14 14 15 16 17 16 17 18 18 18 18 17 17 16 15 14 14 13 13 14 14 14 14 14 14 14 14 14 14 15 13 12 11 10 9 9 10 10 10 11 12 12 12 10 10 11 14
7 6 7 7 7 7 6 6 6 7 10 12 15 16 17 17 16 15 15 17 18 18 18 20 21 22 22 21 20 19 18 17 15 14 14 15 15 15 15 14 14 15 15 15 15 16 15 14 12 11 10 10 10 10 10 11 11 11 12 12 10 10 13
8 8 8 8 8 7 6 7 7 7 7 8 11 15 17 17 17 15 14 15 17 18 19 19 20 22 23 23 23 22 21 20 18 17 16 16 15 15 15 15 15 16 16 16 15 15 15 14 13 12 12 11 11 10 11 11 11 11 12 12 11 11 12
9 9 8 8 8 7 7 7 6 6 6 7 9 13 16 16 16 14 13 13 15 16 18 18 19 20 22 23 24 24 23 22 21 19 18 18 18 17 17 16 16 16 16 17 16 15 15 14 14 14 14 13 12 11 11 12 12 11 12 12 12 13 12
9 9 8 7 6 6 6 6 5 6 7 8 10 13 15 15 15 14 14 14 15 16 17 19 20 22 23 25 26 26 25 23 21 20 19 18 18 18 18 18 18 17 17 17 17 16 16 15 15 15 15 15 14 13 13 12 12 12 12 13 13 14 13
9 8 7 6 6 6 5 4 4 5 6 8 10 13 14 14 13 13 14 14 15 16 17 19 21 23 25 27 28 28 27 25 23 21 21 20 18 17 17 18 18 18 18 19 18 17 17 16 16 15 16 16 15 14 14 14 13 12 13 14 14 15 15
9 7 6 5 5 4 2 2 2 4 6 8 10 12 13 12 12 12 12 12 14 16 17 19 21 23 26 28 29 29 27 25 23 22 21 21 20 17 16 17 18 17 17 18 19 18 18 18 17 16 16 15 15 15 15 15 15 14 14 14 15 16 16
8 7 6 5 4 3 1 1 3 4 5 8 10 11 11 10 11 12 11 10 12 14 15 18 21 23 26 29 31 31 28 24 22 21 21 21 20 19 18 18 18 19 18 18 18 18 18 18 18 18 16 16 15 15 15 15 16 15 15 15 16 16 17
8 6 5 5 4 3 2 2 3 5 6 7 9 10 11 11 13 13 12 11 12 13 15 18 21 24 27 29 32 33 32 27 22 20 21 20 19 19 19 19 19 19 20 19 19 18 18 18 19 19 18 17 16 15 15 15 15 16 16 16 16 17 17
9 7 7 6 5 5 5 5 5 6 6 6 8 10 12 13 14 15 14 13 14 15 18 21 24 26 28 29 30 31 32 29 24 21 20 20 19 19 20 21 20 19 19 20 20 19 19 18 19 19 19 18 17 16 15 15 15 16 16 15 16 17 17
12 10 9 9 8 8 8 7 5 5 4 5 8 10 11 12 12 12 13 14 16 19 21 24 26 28 28 28 27 27 28 27 24 22 20 20 20 20 21 21 20 19 18 19 20 21 20 19 19 19 20 19 18 17 16 15 14 14 15 16 16 16 17
15 15 13 11 10 8 6 4 4 4 4 7 9 9 8 9 9 11 14 17 20 23 24 26 28 29 28 27 26 24 23 22 22 21 20 20 20 21 21 21 21 20 19 19 20 21 22 21 20 20 20 21 19 18 17 16 14 13 14 15 15 15 16
8 7 5 4 4 3 2 3 4 5 6 6 6 7 8 10 13 17 20 23 25 27 28 29 29 28 28 27 25 23 21 20 20 20 20 20 20 20 20 20 21 21 21 20 20 20 21 22 22 21 21 22 21 20 18 17 16 14 13 14 14 15 15
14 11 10 9 7 6 6 7 7 6 6 6 8 10 13 16 19 22 24 26 28 29 30 29 29 28 27 26 24 23 21 20 20 20 20 20 20 20 20 21 21 22 22 22 21 20 21 22 23 22 22 22 23 21 20 18 17 15 14 14 13 14 15
13 12 12 11 11 12 12 11 9 8 8 9 12 14 17 20 22 25 27 29 30 30 30 30 30 29 27 25 24 23 22 22 22 22 21 21 22 23 23 23 22 22 22 23 22 22 21 22 23 24 23 23 23 23 22 20 18 17 16 15 14 14 16
5 6 6 8 12 13 12 10 9 9 11 13 15 18 20 22 24 26 27 28 28 28 29 29 29 28 26 24 24 23 23 23 24 24 24 25 25 26 26 25 23 22 22 22 22 22 22 22 22 23 24 25 24 24 23 22 20 19 18 17 16 16 17
9 10 10 9 9 8 8 9 10 12 15 17 18 20 21 22 24 25 26 26 25 26 26 27 27 25 24 23 24 24 24 24 25 26 27 27 27 27 26 25 24 23 22 22 23 23 22 22 22 23 24 25 25 24 24 23 21 20 19 19 17 17 18
7 9 8 5 5 6 8 10 13 14 16 17 17 18 19 21 22 24 24 24 23 24 24 24 23 23 23 24 24 24 25 25 26 27 27 27 27 26 25 25 25 24 23 22 23 23 23 23 23 23 24 25 26 25 24 24 23 21 20 19 19 19 19
1 4 5 5 6 8 10 11 13 14 15 16 17 18 20 21 22 23 22 22 21 22 22 22 22 23 23 24 24 25 26 26 27 27 26 26 25 25 25 25 25 25 24 23 23 23 23 23 23 23 24 24 25 25 25 25 25 23 20 19 18 19 20
2 4 5 5 6 7 9 11 13 14 15 17 18 20 21 22 22 22 21 20 21 21 22 22 23 23 24 24 25 25 26 27 27 27 26 25 24 24 25 25 25 25 25 24 23 23 23 23 23 23 23 23 24 25 24 25 25 24 21 18 17 18 18
4 4 4 5 6 8 10 12 13 15 16 18 20 20 20 20 20 20 20 20 21 22 23 24 24 24 24 25 26 26 27 27 27 26 25 25 25 25 25 25 26 25 26 26 25 24 24 23 22 23 23 23 23 24 24 25 26 25 23 19 18 17 17
3 3 5 7 9 12 14 15 16 17 18 19 19 19 19 20 20 20 20 21 23 24 25 25 25 25 26 27 27 28 27 27 26 25 25 25 26 26 26 25 25 24 24 25 25 25 25 24 23 23 23 22 22 22 24 25 25 26 24 21 19 18 18
5 7 10 12 14 16 17 17 17 17 18 18 18 19 20 21 22 22 23 24 25 25 26 26 26 26 27 28 29 28 27 26 25 24 25 26 27 27 26 25 24 23 23 24 24 24 24 23 23 23 23 23 22 21 22 23 25 26 25 23 21 19 19
10 12 14 16 17 18 18 18 18 18 18 18 19 20 22 23 23 24 24 25 26 27 27 28 28 29 29 30 30 29 28 27 25 24 25 26 27 26 25 24 23 22 22 22 22 22 22 22 22 23 23 24 23 22 20 21 22 24 25 25 23 21 20
13 15 16 17 18 18 19 19 19 18 18 19 20 21 23 24 24 25 26 27 27 28 29 29 29 30 30 29 28 27 27 26 25 24 25 25 24 24 23 22 22 22 21 20 20 21 21 22 22 22 23 24 25 24 22 21 21 21 22 23 23 22 21
16 17 17 18 18 18 18 18 18 19 19 19 20 21 22 24 24 26 27 28 28 28 28 28 28 28 28 27 26 26 25 24 24 23 23 23 22 21 21 21 22 21 20 19 19 20 21 22 23 23 23 24 24 25 24 23 22 21 20 21 22 22 21
17 17 17 18 17 17 17 17 18 19 19 20 21 22 23 23 24 24 25 26 26 26 25 26 26 26 26 25 24 23 22 22 22 22 22 21 20 19 20 20 20 20 19 19 19 20 21 23 25 25 25 24 24 24 23 23 23 22 20 20 21 22 22
16 16 16 16 16 16 17 18 18 19 20 21 22 22 22 22 22 22 22 23 23 23 24 25 26 26 25 23 21 20 21 21 22 22 22 21 19 19 20 20 19 18 18 19 20 20 21 22 24 25 23 22 22 23 23 23 24 23 21 21 21 22 23
14 14 15 15 16 17 17 18 18 19 21 21 20 20 21 21 21 20 20 21 22 23 24 26 26 25 25 22 20 20 22 23 24 23 23 21 21 20 19 18 18 18 19 20 21 19 18 19 21 22 22 20 20 21 23 23 24 25 26 25 25 24 24
13 14 15 15 16 16 16 17 18 20 20 18 16 17 19 21 20 19 19 20 20 22 24 25 26 26 25 22 20 21 24 26 26 25 22 21 21 21 20 19 20 20 20 20 19 15 13 15 18 20 21 22 21 22 23 24 24 26 27 27 26 24 24
13 15 15 15 15 16 16 17 18 18 17 15 14 16 18 20 21 20 18 17 18 20 22 23 24 25 24 22 21 21 24 26 26 24 22 20 20 21 22 23 22 19 16 16 16 13 12 15 17 18 20 22 23 23 24 24 24 25 26 27 26 24 23
15 15 14 13 14 15 15 16 17 17 15 13 14 16 18 19 21 20 19 17 17 20 22 22 22 23 23 23 21 21 22 23 22 21 21 20 20 20 20 19 20 19 18 18 19 18 18 19 20 20 20 22 23 24 23 23 23 23 24 25 24 23 22
Wind_Direction
131 129 115 98 78 54 37 30 32 37 43 49 53 54 52 50 43 32 26 26 32 33 26 20 22 26 27 27 32 34 23 11 8 5 2 359 352 344 342 343 344 346 346 344 340 339 329 314 302 294 287 278 274 274 273 274 272 271 270 266 260 253 240
121 123 121 107 85 57 35 22 19 22 28 35 41 44 43 44 41 33 28 27 29 32 30 28 30 29 24 21 22 22 15 3 358 2 7 9 3 353 347 343 343 345 344 338 335 335 329 312 299 293 289 281 277 278 278 277 274 273 275 274 271 265 248
119 119 111 100 88 74 58 40 27 20 19 23 32 36 34 33 35 35 33 30 28 29 32 36 38 32 20 13 11 7 1 356 357 1 4 7 9 3 354 345 342 344 340 333 330 329 324 313 303 299 295 288 283 281 280 282 281 278 280 283 284 283 265
126 117 103 91 84 81 76 66 51 35 27 26 34 40 39 39 41 43 41 37 33 30 33 35 33 29 23 16 11 3 355 353 353 354 353 355 359 0 354 342 339 341 337 332 329 325 319 313 304 299 297 293 289 285 281 282 282 278 282 283 278 280 270
131 118 107 102 97 90 78 66 57 49 44 40 44 48 45 43 43 44 41 37 32 28 31 33 29 25 22 19 17 12 4 358 352 346 342 340 342 345 342 333 329 332 330 326 326 322 317 312 303 297 298 297 291 286 282 280 276 276 285 283 267 261 258
133 126 121 116 109 99 83 68 56 56 59 56 53 51 45 39 35 36 38 35 29 24 24 28 26 22 18 16 15 12 8 4 358 350 344 340 340 340 336 330 327 328 328 324 320 318 315 312 309 304 302 300 294 289 287 286 283 282 287 284 264 254 252
137 136 130 124 118 111 101 88 71 62 65 64 59 53 47 41 36 38 41 38 33 26 22 22 22 19 15 12 9 5 4 4 359 354 350 348 349 347 342 336 331 330 329 324 319 317 317 318 319 316 309 304 301 297 292 288 288 288 285 281 267 252 247
147 147 140 136 132 125 113 98 84 74 69 64 55 49 46 42 40 42 44 41 36 30 25 22 20 18 14 9 6 2 359 359 356 352 347 345 348 351 350 346 339 334 330 326 321 318 317 317 319 319 313 308 305 302 295 287 286 286 283 280 270 254 247
154 155 152 148 146 137 117 96 83 75 66 52 42 38 40 41 39 42 44 40 33 28 25 21 18 17 14 9 5 1 356 354 352 349 344 338 338 341 347 348 345 339 333 330 327 321 316 312 311 313 311 309 306 302 295 289 285 284 282 280 273 263 254
161 161 158 156 154 140 112 92 75 60 48 38 30 27 31 35 36 36 37 33 27 22 19 16 13 12 11 9 5 1 356 351 348 346 343 339 334 332 334 338 340 338 333 331 330 327 319 311 307 308 308 308 306 301 295 288 284 283 281 278 276 271 264
165 166 164 165 158 134 108 90 70 52 40 30 21 15 19 26 28 27 24 21 20 18 14 11 8 6 6 6 4 1 358 352 347 344 342 340 337 332 328 328 330 331 329 328 330 330 326 318 310 306 305 306 305 302 298 291 287 284 280 276 273 270 266
178 178 172 173 161 137 108 85 63 40 27 19 11 7 9 15 18 19 16 11 9 7 6 4 2 0 360 0 1 360 357 353 348 343 341 339 336 333 330 326 325 325 324 323 324 327 327 324 318 310 305 304 303 302 299 294 289 286 281 277 273 269 267
184 181 178 186 178 161 127 74 33 9 7 6 3 359 358 2 6 7 6 2 357 354 355 355 354 354 354 354 355 355 354 352 347 343 341 337 334 333 330 327 325 324 324 322 321 322 322 321 319 316 310 304 301 299 294 290 289 287 285 281 275 271 268
196 193 196 205 197 193 218 347 348 339 343 355 357 350 347 348 348 350 350 344 343 344 345 347 348 347 347 347 347 347 347 347 344 340 338 335 332 330 329 327 324 324 324 322 320 320 319 317 314 314 312 305 300 296 292 289 287 287 286 283 279 273 267
204 204 216 222 220 229 253 277 306 314 324 349 352 336 332 335 333 335 334 328 331 336 339 344 345 344 343 342 342 341 341 340 339 337 335 331 327 325 326 326 323 320 320 320 319 318 316 313 309 309 310 307 303 299 297 294 291 288 287 284 282 278 272
238 238 248 255 252 251 258 270 298 319 328 336 329 318 320 324 323 323 323 321 327 334 339 342 342 342 341 340 339 337 336 334 334 335 334 331 327 323 323 324 323 318 315 314 315 315 313 310 306 303 305 307 307 306 305 302 297 292 289 283 279 277 275
279 265 259 264 271 276 282 293 316 337 331 310 307 311 315 315 314 316 318 323 330 334 337 337 337 338 339 338 337 336 333 330 330 332 334 333 331 328 324 324 324 321 316 311 310 310 309 308 305 300 300 302 306 308 308 306 303 297 292 286 280 275 272
296 283 276 279 288 298 304 316 335 329 308 303 308 313 315 314 318 323 325 329 332 333 333 333 333 335 336 337 338 336 334 332 331 333 334 333 334 333 331 328 325 323 320 315 311 307 305 305 305 301 298 299 302 305 305 305 307 304 297 290 285 280 275
342 319 310 318 331 349 344 329 326 315 310 318 324 328 331 331 332 333 332 332 332 332 332 331 332 333 334 335 337 337 337 336 335 336 337 336 336 335 334 330 325 323 322 319 315 309 305 303 303 302 300 299 300 302 301 302 304 305 301 295 290 285 280
59 53 51 46 36 24 3 346 340 334 330 332 333 334 335 334 334 334 333 332 332 332 332 331 331 332 333 332 333 335 337 337 337 337 336 336 336 335 333 330 325 322 320 317 315 311 306 302 300 300 300 299 300 300 299 299 298 299 299 297 295 291 285
63 48 42 31 11 357 349 344 339 332 325 324 325 328 330 330 331 330 329 328 328 328 329 329 329 330 330 330 331 333 335 336 336 336 334 333 332 331 331 329 324 321 317 314 312 310 307 304 301 299 298 298 299 299 297 297 295 294 295 294 294 293 290
31 13 355 337 327 322 318 317 317 316 319 322 326 329 330 331 332 330 329 327 325 325 325 325 325 326 328 329 330 330 332 332 333 333 333 332 331 330 330 328 325 322 318 314 311 308 305 303 300 298 295 294 295 296 296 296 295 294 293 292 292 291 289
301 300 303 307 306 304 303 307 314 321 325 328 330 331 332 333 332 329 326 323 322 322 322 321 322 324 325 326 326 326 328 329 330 331 331 332 332 331 329 327 325 324 322 318 314 311 308 304 300 297 294 293 292 294 295 295 297 297 294 292 292 291 289
305 291 289 284 282 298 311 316 321 325 326 327 328 327 325 325 324 322 320 320 320 319 319 319 319 321 322 322 323 323 325 326 328 330 330 330 331 330 328 327 326 325 324 321 317 314 312 308 302 297 295 294 292 292 293 294 296 299 298 294 294 293 291
308 258 257 267 287 305 314 316 318 320 319 319 318 317 317 318 318 319 318 318 317 315 315 316 316 318 319 320 321 321 323 325 327 329 330 329 328 326 325 325 325 324 324 321 318 316 313 311 306 300 297 295 294 293 292 291 293 297 299 297 294 293 292
213 242 260 277 287 296 303 307 312 315 315 315 315 315 316 317 318 319 317 315 314 314 315 315 315 317 317 318 319 321 323 326 328 329 329 327 325 323 322 322 322 321 320 319 318 316 314 312 309 304 299 296 294 294 293 292 291 293 297 297 292 290 290
242 254 268 282 290 302 310 313 317 318 316 316 317 318 318 318 319 319 317 316 316 316 317 317 317 318 318 320 321 322 324 326 327 327 326 325 323 321 320 320 319 318 318 318 317 316 315 313 311 308 304 299 295 292 293 293 292 292 294 295 289 284 283
246 268 295 308 315 321 322 322 323 322 321 322 322 321 320 320 321 320 320 319 319 318 318 318 317 318 320 322 323 323 324 324 324 324 324 323 322 321 320 320 319 319 318 317 317 316 315 314 312 310 306 303 299 293 289 289 290 290 291 291 287 280 277
305 317 321 323 324 325 326 327 328 328 327 326 324 323 323 323 323 322 322 321 321 321 320 319 318 318 319 320 320 320 321 321 322 323 322 321 321 321 321 321 321 321 320 319 319 318 318 317 318 316 312 308 303 296 289 285 285 286 288 288 286 282 277
326 327 327 328 329 329 329 330 330 332 331 328 327 327 326 326 325 324 324 324 324 323 321 320 318 318 318 318 318 318 318 319 320 321 320 319 320 321 323 324 324 325 326 324 323 323 323 324 325 323 320 315 311 306 299 291 285 284 285 286 287 286 283
334 332 332 332 331 331 332 332 332 333 331 329 330 329 328 329 329 327 327 326 326 324 323 321 320 318 317 317 317 317 318 319 320 319 319 320 322 324 326 326 327 329 331 330 329 329 329 329 327 324 321 318 315 314 311 305 296 290 287 288 289 289 287
335 335 334 334 333 334 335 335 334 332 332 332 333 332 331 331 330 329 329 329 329 328 327 325 324 323 321 319 318 318 319 320 322 322 323 325 326 328 328 329 329 330 332 335 336 335 332 330 330 328 324 319 316 315 313 310 306 301 297 295 293 290 287
333 335 336 335 336 337 337 336 335 335 337 338 337 336 335 333 333 334 334 335 335 334 333 333 335 336 334 333 332 330 329 328 329 330 331 331 332 331 329 328 328 329 332 336 338 338 336 335 335 332 327 321 317 315 314 311 309 307 306 302 296 290 287
337 340 341 340 340 339 338 337 338 340 341 341 339 340 340 340 342 343 343 344 344 343 344 347 349 349 349 349 348 346 341 338 337 338 338 338 337 334 331 329 328 329 331 334 336 339 339 336 332 330 328 324 318 313 311 309 307 306 305 302 298 294 291
342 344 343 342 341 340 339 339 341 342 343 342 343 346 347 349 349 348 349 353 352 350 352 353 353 353 353 352 351 348 344 341 341 343 343 341 336 332 332 334 336 334 329 327 330 334 334 329 326 327 330 329 324 318 314 311 307 304 302 301 300 299 297
346 345 343 342 341 340 340 340 340 342 343 345 349 352 352 351 350 347 350 355 353 351 353 352 351 352 353 352 350 345 341 341 342 342 342 339 335 333 335 339 340 336 331 328 326 326 327 326 324 324 328 329 328 325 322 316 309 305 303 303 303 302 300
346 344 342 341 340 340 340 340 341 343 346 349 352 352 351 352 351 348 348 350 349 348 351 352 352 351 351 351 349 343 339 340 341 343 343 341 338 336 337 338 340 341 342 342 339 334 333 332 326 323 327 330 329 325 321 316 307 300 298 298 299 299 299
345 345 343 341 341 343 342 342 344 347 347 348 350 351 350 350 349 348 347 346 344 344 347 351 352 351 348 347 346 343 340 341 342 343 344 342 339 337 337 339 344 347 344 342 338 333 330 328 327 328 331 331 330 328 326 323 319 311 304 300 300 301 301